Погода в Козлуке

Турция     38°11′33″N   41°29′23″E
темп.,
°C
ветер,
м/с
пор.,
м/с
влажн.,
%
обл.,
%
осадки,
мм/ч
давл.,
гПа
погр.,
м
26 февраля, пт
пт2600:00−1ссв66540 0.0 1028131
03:00−2ссв66540 0.0 1028103
06:00−2ссв56530 0.0 102997
09:00+1св44460 0.0 1028153
12:00+5св21400 0.0 1025469
15:00+6св32420 0.0 1023474
18:00+2ссв55510 0.0 102488
21:000св55490 0.0 102563
27 февраля, сб
сб2700:000ссв544555 0.0 102557
03:000св444327 0.0 102454
06:000ссв44410 0.0 102448
09:00+3св33380 0.0 1024131
12:00+7вюв11340 0.0 1021557
15:00+8в11360 0.0 1019858
18:00+5св33500 0.0 101943
21:00+3ссв44460 0.0 102139
28 февраля, вс
вс2800:00+2ссв44470 0.0 102132
03:00+2ссв44520 0.0 102132
06:00+1ссв44550 0.0 102136
09:00+4св32510 0.0 1021115
12:00+8ююв11440 0.0 1019956
15:00+9ююз22400 0.0 10171407
18:00+6зсз00560 0.0 101822
21:00+4ссв34532 0.0 101933
1 марта, пн
пн100:00+5св225588 0.0 102030
03:00+5св235994 0.0 102030
06:00+3св3375100 0.1 102057
09:00+5ю1269100 0.2 1020698
12:00+4всв2284100 2.4 1018234
15:00+8ююв3564100 3.4 1017988
18:00+6св2283100 2.1 1018130
21:00+5св4486100 2.9 101990
2 марта, вт
вт200:00+4ссв3386100 2.4 102082
03:00+5юв2782100 3.3 1019731
06:00+4ююв3597100 4.4 1020397
09:00+4юв2296100 7.9 1021202
12:00+4юв1194100 2.5 1020193
15:00+4ююв3396100 4.3 1019249
18:00+4всв238899 1.4 1019136
21:00+4ссв4587100 2.1 1020182